Tracking 18796 objects as of 20-September-2017
HD Live streaming from Space Station
objects crossing your sky now

BSAT-3A

Track BSAT-3A now!
BSAT-3A is classified as:


NORAD ID: 32019
Int'l Code: 2007-036B
Perigee: 35,774.5 km
Apogee: 35,812.6 km
Inclination: 0.1 °
Period: 1,436.1 minutes
Semi major axis: 42164 km
RCS: 12.5893 m2 (large)
Launch date: August 14, 2007
Source: Japan (JPN)
Launch site: FRENCH GUIANA (FRGUI)

BSAT-3a, is a 4,365-pound satellite for the Broadcasting Satellite System Corp. of Japan.
aabbcc
Your satellite tracking list
Your tracking list is empty





NASA's NSSDC Master Catalog

Two Line Element Set (TLE):
1 32019U 07036B   17262.69813157 -.00000382 +00000-0 +00000-0 0  9993
2 32019 000.0593 236.0798 0004515 332.0520 151.8463 01.00272408018482
Source of the keplerian elements: AFSPC